FENGYUN 1C DEB

Satellite information

Favourite Embed

Satellite Type and Status

DEBRISIN ORBIT

Key statistics

Satellite FENGYUN 1C DEB at a glance.

Uptime

9495

Days in orbit

Revolutions

≈ 14.1

Per day

Orbit

SSO

Sun Synchronous Orbit

Inclination

99.0

Latest

Satellite identification and parameters

Extended collection of information and parameters for FENGYUN 1C DEB.

Object identification

Identified? True

Debris? True

Object name: FENGYUN 1C DEB

International designator: 1999-025UE

Object number (NORAD): 30173

Object ID (CCSDS): 30173

Country: PEOPLES REPUBLIC OF CHINA (PRC)

Current information (Y/N): Y

RCS size: SMALL

Orbital parameters

Period: 102.118 minutes

Inclination: 98.9856 deg

SMA: 7237.069 km

Apoapsis: 920.084 km

Periapsis: 797.783 km

RAAN: 198.7027 deg

Eccentricy: 0.0084496

Argument of periapsis: 184.5006 deg

Mean anomaly: 227.3577 deg

Mean motion: 14.10128594 rev/day

Mean motion (dot): 0.00002656 rev/day2

B* drag term: 0.0014774 1/REarth

Two-line elements (TLE)

Creation date: May 8, 2025, 3:01 a.m.

Reference frame: TEME

Reference center: EARTH

Epoch: May 7, 2025, 8:41 p.m. UTC

TLE line 0: 0 FENGYUN 1C DEB

TLE line 1: 1 30173U 99025UE 25127.86191840 .00002656 00000-0 14774-2 0 9997

TLE line 2: 2 30173 98.9856 198.7027 0084496 184.5006 227.3577 14.10128594934633

Live tracking on map

Real-time ground track for satellite FENGYUN 1C DEB.

In-orbit conjunctions

A list of the most updated potential collisions computed for object FENGYUN 1C DEB.

Target Orbit TCA Probability of collision Miss distance Type
CZ-6A DEB LEO 2025-02-19 19:09:45 0.0001328536 245.0 (m) DEBRIS
FENGYUN 1C DEB SSO 2024-11-15 11:19:01 0.0005930294 209.0 (m) DEBRIS

Associated space launch

Chinese polar orbiting meteorological satellite

FENGYUN 1C DEB was lifted into orbit during the mission ‘Long March 4B | Feng Yun 1C’, on board a Long March 4B space rocket.

The launch took place on May 10, 1999, 1:33 a.m. from Launch Complex 7.

For more information about the launch, click the button.

Launch to space Long March 4B | Feng Yun 1C
Long March 4B | Feng Yun 1C

Agency: N/A

Status: Launch Successful

Launch date: May 10, 1999, 1:33 a.m. UTC

Rocket: Long March 4B

Launch pad: Launch Complex 7

Location: Taiyuan Satellite Launch Center, People's Republic of China

...

Latest news about this satellite

There are no fresh news available about this satellite. Check back as we update our databases every day.


Newsletter sign-up

Weekly statistics, charts and insights to help you stay on top of the space industry.